Regional Weather Roundup
Issued by NWS

Home | Current Version | Previous Version | Text Only | Print | Product List | Glossary On
Versions: 1 2 3 4 5 6 7 8 9 10 11 12 13 14 15 16 17 18 19 20 21 22 23 24 25 26 27 28 29 30 31 32 33 34 35 36 37 38 39 40 41 42 43 44 45 46 47 48 49 50
000
ASUS43 KMKX 181711
RWRWI

WISCONSIN REGIONAL WEATHER ROUNDUP
NATIONAL WEATHER SERVICE MILWAUKEE/SULLIVAN WI
1200 PM CDT FRI APR 18 2014

NOTE: "FAIR" INDICATES FEW OR NO CLOUDS BELOW 12,000 FEET WITH NO
SIGNIFICANT WEATHER AND/OR OBSTRUCTIONS TO VISIBILITY.

WIZ001-002-006>008-014>016-023>028-181800-
NORTHWEST WISCONSIN

CITY           SKY/WX    TMP DP  RH WIND       PRES   REMARKS
SUPERIOR ARPT  SUNNY     36  21  55 E6        30.43R WCI  31
ASHLAND        SUNNY     37  20  50 VRB6      30.43S WCI  32
HAYWARD        SUNNY     41  18  39 NE7       30.38F
SIREN          SUNNY     43  23  45 E5        30.38S
RICE LAKE      SUNNY     39  25  56 N5        30.40S
LADYSMITH      SUNNY     39  21  48 NE6       30.40R
EAU CLAIRE     PTSUNNY   45  25  45 NE8       30.38F
MENOMONIE      MOSUNNY   43  28  56 NE7       30.39S
NEW RICHMOND   CLOUDY    43  27  52 SE6       30.38S
OSCEOLA        PTSUNNY   42  27  55 E5        30.41S
$$

WIZ003>005-009-010-017-018-181800-
NORTH CENTRAL WISCONSIN

CITY           SKY/WX    TMP DP  RH WIND       PRES   REMARKS
WOODRUFF       MOSUNNY   43  25  50 NW7       30.37S
RHINELANDER    MOSUNNY   36  22  56 NW7       30.37R WCI  30
EAGLE RIVER    PTSUNNY   34  21  58 NW3       30.36S
LAND O LAKES   PTSUNNY   34  22  62 NW7       30.38R WCI  28
PHILLIPS       SUNNY     36  21  54 N3        30.36F
TOMAHAWK       MOSUNNY   38  19  45 CALM      30.36F
MEDFORD        MOSUNNY   38  22  53 N6        30.36F WCI  33
MERRILL        MOSUNNY   40  20  45 CALM      30.36F
$$

WIZ029-030-035-036-043>047-181800-
CENTRAL WISCONSIN

CITY           SKY/WX    TMP DP  RH WIND       PRES   REMARKS
WAUSAU         MOSUNNY   41  23  48 VRB5      30.35F
MOSINEE        SUNNY     41  25  52 N12       30.37F
MARSHFIELD     SUNNY     43  26  51 VRB5      30.36F
STEVENS POINT  SUNNY     41  21  44 N7        30.36F
WAUPACA        SUNNY     46  21  36 CALM      30.37F
WAUTOMA        SUNNY     46  25  44 VRB6      30.37F
WISC RAPIDS    SUNNY     45  24  43 N10       30.37F
CAMP DOUGLAS   SUNNY     48  25  40 CALM      30.36F
$$

WIZ011>013-019>022-031-037>040-048>050-181800-
NORTHEAST WISCONSIN

CITY           SKY/WX    TMP DP  RH WIND       PRES   REMARKS
ANTIGO         SUNNY     37  24  59 N3        30.36S
STURGEON BAY   CLOUDY    37  25  60 NW9       30.39S WCI  31
GREEN BAY      NOT AVBL
MANITOWOC      CLOUDY    41  29  62 NW8       30.38F
APPLETON       MOSUNNY   43  27  52 N8        30.38S
CLINTONVILLE   SUNNY     43  25  49 NW8       30.36F
OSHKOSH        SUNNY     42  28  57 E6        30.37F
$$

WIZ032>034-041-042-053>061-181800-
SOUTHWEST WISCONSIN

CITY           SKY/WX    TMP DP  RH WIND       PRES   REMARKS
LA CROSSE      SUNNY     46  27  47 S3        30.38S
SPARTA         MOSUNNY   47  22  38 E5        30.38S
VIROQUA        FAIR      45  27  48 W6        30.36S
BOSCOBEL       MOSUNNY   49  25  39 N7        30.38F
PRAIRIE DU CHI SUNNY     46  31  54 CALM      30.37S
PLATTEVILLE    FAIR      47  32  54 NE5       30.36S
$$

WIZ056-057-062-063-064-067-068-181800-
SOUTH CENTRAL WISCONSIN

CITY           SKY/WX    TMP DP  RH WIND       PRES   REMARKS
BARABOO/DELLS  SUNNY     45  25  45 N3        30.35F
LONE ROCK      SUNNY     47  29  49 CALM      30.37S
WATERTOWN      SUNNY     44  32  62 N8        30.35F
MADISON        MOSUNNY   46  29  51 N6        30.37F
MIDDLETON      FAIR      47  30  51 N8        30.37S
MONROE         SUNNY     49  32  52 N6        30.34F
JANESVILLE     SUNNY     50  30  46 N6        30.35S
$$

WIZ051-052-058>065-066-070>072-181800-
SOUTHEAST WISCONSIN

CITY           SKY/WX    TMP DP  RH WIND       PRES   REMARKS
MILWAUKEE      MOSUNNY   42  30  62 NE14      30.38S
WAUKESHA       MOSUNNY   45  32  61 N5        30.36F
MILWAUKEE/TIMM PTSUNNY   45  30  57 E7        30.37S
RACINE         SUNNY     44  30  57 N14       30.39R
BURLINGTON     MOSUNNY   48  34  57 E8        30.35S
KENOSHA        PTSUNNY   48  34  58 NE9G17    30.37R
FOND DU LAC    SUNNY     42  29  59 VRB6      30.38S
SHEBOYGAN      PTSUNNY   44  30  57 MISG      30.37S
WEST BEND      MOSUNNY   43  30  61 N5        30.36F
JUNEAU         SUNNY     43  28  54 NW6       30.38F
$$

LSZ147-162-181800-
LAKE SUPERIOR

STATION/POSITION TIME  TEMP    WIND        PRES    WAVE
                       AIR SEA DIR/SP/G            HT/PER
                 (UTC) (F)     (DEG/KT/KT) (MB)    (FT/S)
DEVILS ISLAND    1700   33        CALM     1031.7R
PORT WING        1600   33     360/  6/  6 1030.5S
SAXON HARBOR     1600             CALM     1030.8R
$$

LMZ867-665-643>646-181800-
LAKE MICHIGAN

STATION/POSITION TIME  TEMP    WIND        PRES    WAVE
                       AIR SEA DIR/SP/G            HT/PER
                 (UTC) (F)     (DEG/KT/KT) (MB)    (FT/S)
NORTHPORT PIER   1600   35     320/  5/  7 1028.4R
SISTER BAY       1623   41     290/  7/  7   N/A
KEWAUNEE LAKESHO 1600   37     340/  6/ 10 1029.3R
SHEBOYGAN LAKESH 1700   36      60/ 11/ 12 1029.5F
PORT WASHINGTON  1640   39      50/  9/ 12 1029.1S
MILWAUKEE LAKESH 1600   36      30/ 13/ 14   N/A
KENOSHA   LAKESH 1700   37      40/ 17/ 20   N/A
$$

TC  - TEMPERATURE IN CELSIUS
VSB - VISIBILITY IN STATUTE MILES
WCI - WIND CHILL INDEX
HX  - HEAT INDEX




USA.gov is the U.S. government's official web portal to all federal, state and local government web resources and services.